EZY86HC EGPH-EGKK

Flight info

Callsign EZY86HC
Flight time 1h 11m
Altitude 37000
Route GOSAM P600 FENIK L612 NAVSO DCT ADZOP DCT EGTOC DCT KEPAD L151 DISIT
Aircraft A320/M-SDE2E3FGHIJ1RWXYZ/LB1

Departure

Time 2026-05-05 11:57
Airport Edinburgh Airport (EGPH)

Arrival

Time 2026-05-05 13:08
Airport London Gatwick Airport (EGKK)
Time Latitude Longitude Altitude Speed Heading
2026-05-05 11:34 55.94782 -3.36887 109 ft 0 kts 268°
2026-05-05 11:48 55.94782 -3.36885 109 ft 2 kts 269°
2026-05-05 11:48 55.94782 -3.36854 108 ft 3 kts 269°
2026-05-05 11:49 55.94783 -3.36822 108 ft 3 kts 269°
2026-05-05 11:49 55.94782 -3.36789 107 ft 3 kts 296°
2026-05-05 11:49 55.94774 -3.36768 107 ft 0 kts 328°
2026-05-05 11:51 55.94781 -3.36771 106 ft 5 kts 342°
2026-05-05 11:52 55.94823 -3.36778 108 ft 11 kts 359°
2026-05-05 11:52 55.94909 -3.36814 110 ft 13 kts 329°
2026-05-05 11:52 55.94904 -3.36960 109 ft 14 kts 240°
2026-05-05 11:52 55.94855 -3.37105 110 ft 13 kts 239°
2026-05-05 11:53 55.94807 -3.37251 108 ft 13 kts 240°
2026-05-05 11:53 55.94766 -3.37376 113 ft 10 kts 239°
2026-05-05 11:53 55.94724 -3.37494 112 ft 15 kts 237°
2026-05-05 11:53 55.94659 -3.37685 114 ft 21 kts 239°
2026-05-05 11:54 55.94570 -3.37947 115 ft 29 kts 240°
2026-05-05 11:54 55.94449 -3.38291 114 ft 36 kts 238°
2026-05-05 11:54 55.94335 -3.38639 118 ft 29 kts 242°
2026-05-05 11:54 55.94277 -3.38844 122 ft 3 kts 272°
2026-05-05 11:55 55.94288 -3.38861 121 ft 1 kts 316°
2026-05-05 11:55 55.94309 -3.38889 122 ft 7 kts 328°
2026-05-05 11:55 55.94374 -3.38956 120 ft 14 kts 335°
2026-05-05 11:55 55.94437 -3.38902 120 ft 0 kts 60°
2026-05-05 11:56 55.94438 -3.38898 120 ft 5 kts 60°
2026-05-05 11:56 55.94593 -3.38437 117 ft 82 kts 59°
2026-05-05 11:56 55.95000 -3.37241 121 ft 141 kts 60°
2026-05-05 11:57 55.95522 -3.35756 826 ft 139 kts 57°
2026-05-05 11:57 55.96057 -3.34279 1541 ft 143 kts 56°
2026-05-05 11:57 55.96697 -3.32940 2230 ft 142 kts 39°
2026-05-05 11:57 55.97462 -3.31846 2909 ft 140 kts 40°
2026-05-05 11:58 55.98243 -3.30726 3448 ft 149 kts 40°
2026-05-05 11:58 55.99090 -3.29457 3761 ft 170 kts 40°
2026-05-05 11:58 56.00104 -3.28263 4284 ft 177 kts 22°
2026-05-05 11:58 56.01293 -3.27971 5001 ft 172 kts 351°
2026-05-05 11:59 56.02406 -3.28785 5539 ft 178 kts 323°
2026-05-05 11:59 56.03197 -3.30540 6026 ft 188 kts 294°
2026-05-05 11:59 56.03402 -3.32874 6527 ft 197 kts 264°
2026-05-05 11:59 56.03100 -3.35319 7004 ft 204 kts 256°
2026-05-05 12:00 56.02651 -3.37751 7548 ft 211 kts 252°
2026-05-05 12:00 56.02202 -3.40346 7993 ft 227 kts 257°
2026-05-05 12:00 56.01791 -3.43187 8495 ft 244 kts 259°
2026-05-05 12:00 56.01379 -3.46196 9019 ft 261 kts 258°
2026-05-05 12:01 56.00941 -3.49418 9701 ft 270 kts 258°
2026-05-05 12:01 56.00482 -3.52753 10448 ft 278 kts 258°
2026-05-05 12:01 56.00002 -3.56209 10897 ft 295 kts 258°
2026-05-05 12:01 55.99496 -3.59809 11329 ft 310 kts 258°
2026-05-05 12:02 55.98957 -3.63589 12005 ft 317 kts 257°
2026-05-05 12:02 55.98407 -3.67424 12780 ft 321 kts 257°
2026-05-05 12:02 55.97841 -3.71353 13560 ft 324 kts 257°
2026-05-05 12:02 55.97282 -3.75219 14261 ft 327 kts 257°
2026-05-05 12:03 55.96713 -3.79166 14936 ft 330 kts 257°
2026-05-05 12:03 55.96136 -3.83154 15601 ft 333 kts 257°
2026-05-05 12:03 55.95550 -3.87172 16261 ft 336 kts 257°
2026-05-05 12:03 55.94960 -3.91221 16931 ft 339 kts 257°
2026-05-05 12:04 55.94364 -3.95309 17588 ft 342 kts 257°
2026-05-05 12:04 55.93569 -3.99328 18241 ft 347 kts 245°
2026-05-05 12:04 55.92237 -4.02959 18815 ft 354 kts 232°
2026-05-05 12:04 55.90410 -4.05959 19352 ft 361 kts 218°
2026-05-05 12:05 55.88322 -4.08508 19871 ft 366 kts 217°
2026-05-05 12:05 55.86213 -4.11080 20403 ft 369 kts 217°
2026-05-05 12:05 55.84089 -4.13676 20933 ft 372 kts 217°
2026-05-05 12:05 55.81947 -4.16293 21454 ft 376 kts 217°
2026-05-05 12:06 55.79778 -4.18934 21970 ft 379 kts 217°
2026-05-05 12:06 55.77587 -4.21578 22465 ft 382 kts 214°
2026-05-05 12:06 55.75196 -4.23707 22973 ft 389 kts 202°
2026-05-05 12:06 55.72559 -4.24910 23468 ft 395 kts 189°
2026-05-05 12:07 55.69796 -4.25056 23901 ft 401 kts 176°
2026-05-05 12:07 55.67044 -4.24095 24306 ft 407 kts 164°
2026-05-05 12:07 55.64409 -4.22206 24709 ft 412 kts 154°
2026-05-05 12:07 55.61889 -4.19740 25118 ft 415 kts 153°
2026-05-05 12:08 55.59363 -4.17251 25527 ft 416 kts 153°
2026-05-05 12:08 55.56827 -4.14769 25933 ft 418 kts 153°
2026-05-05 12:08 55.54302 -4.12309 26322 ft 420 kts 153°
2026-05-05 12:08 55.51731 -4.09811 26726 ft 422 kts 153°
2026-05-05 12:09 55.49152 -4.07309 27107 ft 424 kts 153°
2026-05-05 12:09 55.46562 -4.04797 27488 ft 427 kts 153°
2026-05-05 12:09 55.43952 -4.02260 27867 ft 429 kts 153°
2026-05-05 12:09 55.41338 -3.99718 28236 ft 431 kts 153°
2026-05-05 12:10 55.38722 -3.97177 28607 ft 433 kts 153°
2026-05-05 12:10 55.36073 -3.94613 28972 ft 435 kts 153°
2026-05-05 12:10 55.33415 -3.92048 29312 ft 437 kts 154°
2026-05-05 12:10 55.30729 -3.89458 29679 ft 440 kts 154°
2026-05-05 12:11 55.28053 -3.86883 30021 ft 442 kts 154°
2026-05-05 12:11 55.25344 -3.84287 30315 ft 444 kts 154°
2026-05-05 12:11 55.22598 -3.81783 30585 ft 444 kts 159°
2026-05-05 12:11 55.19712 -3.79924 30857 ft 442 kts 166°
2026-05-05 12:12 55.16772 -3.78322 31110 ft 444 kts 166°
2026-05-05 12:12 55.13808 -3.76706 31388 ft 446 kts 166°
2026-05-05 12:12 55.10845 -3.75088 31717 ft 446 kts 166°
2026-05-05 12:12 55.07894 -3.73474 32125 ft 444 kts 166°
2026-05-05 12:13 55.04952 -3.71862 32532 ft 442 kts 166°
2026-05-05 12:13 55.02064 -3.70278 32891 ft 441 kts 166°
2026-05-05 12:13 54.99092 -3.68654 33292 ft 440 kts 166°
2026-05-05 12:13 54.96211 -3.67085 33669 ft 439 kts 166°
2026-05-05 12:14 54.93300 -3.65506 34053 ft 438 kts 166°
2026-05-05 12:14 54.90399 -3.63935 34369 ft 437 kts 166°
2026-05-05 12:14 54.87496 -3.62365 34649 ft 437 kts 166°
2026-05-05 12:14 54.84580 -3.60791 34906 ft 438 kts 166°
2026-05-05 12:15 54.81675 -3.59224 35142 ft 438 kts 166°
2026-05-05 12:15 54.78770 -3.57656 35378 ft 438 kts 166°
2026-05-05 12:15 54.75834 -3.56072 35614 ft 439 kts 166°
2026-05-05 12:15 54.72922 -3.54505 35839 ft 439 kts 166°
2026-05-05 12:16 54.69999 -3.52941 36055 ft 440 kts 166°
2026-05-05 12:16 54.67075 -3.51382 36285 ft 440 kts 166°
2026-05-05 12:16 54.64153 -3.49821 36496 ft 440 kts 166°
2026-05-05 12:16 54.61222 -3.48253 36708 ft 441 kts 165°
2026-05-05 12:17 54.58292 -3.46690 36915 ft 441 kts 165°
2026-05-05 12:17 54.55360 -3.45130 37029 ft 440 kts 165°
2026-05-05 12:17 54.49586 -3.42068 37043 ft 439 kts 165°
2026-05-05 12:18 54.43757 -3.38981 37041 ft 438 kts 165°
2026-05-05 12:18 54.37952 -3.35763 37043 ft 439 kts 163°
2026-05-05 12:19 54.32183 -3.32352 37044 ft 439 kts 163°
2026-05-05 12:19 54.26419 -3.28950 37037 ft 438 kts 163°
2026-05-05 12:20 54.20643 -3.25601 37028 ft 438 kts 163°
2026-05-05 12:20 54.14858 -3.22287 37030 ft 438 kts 163°
2026-05-05 12:21 54.09078 -3.18984 37030 ft 438 kts 163°
2026-05-05 12:21 54.03335 -3.15696 37034 ft 438 kts 163°
2026-05-05 12:22 53.97532 -3.12384 37035 ft 438 kts 163°
2026-05-05 12:22 53.91757 -3.09108 37040 ft 438 kts 163°
2026-05-05 12:23 53.85984 -3.05831 37041 ft 437 kts 163°
2026-05-05 12:23 53.80212 -3.02563 37043 ft 437 kts 163°
2026-05-05 12:24 53.74443 -2.99301 37042 ft 437 kts 163°
2026-05-05 12:24 53.68677 -2.96059 37042 ft 437 kts 163°
2026-05-05 12:25 53.62898 -2.92821 37039 ft 437 kts 163°
2026-05-05 12:25 53.57128 -2.89601 37039 ft 437 kts 163°
2026-05-05 12:26 53.51363 -2.86394 37043 ft 436 kts 163°
2026-05-05 12:26 53.45596 -2.83188 37041 ft 436 kts 163°
2026-05-05 12:27 53.40809 -2.80535 37040 ft 436 kts 163°
2026-05-05 12:27 53.35041 -2.77350 37045 ft 436 kts 163°
2026-05-05 12:28 53.29278 -2.74165 37035 ft 436 kts 163°
2026-05-05 12:28 53.23519 -2.70995 37040 ft 436 kts 163°
2026-05-05 12:29 53.17751 -2.67844 37037 ft 435 kts 163°
2026-05-05 12:29 53.11993 -2.64704 37032 ft 436 kts 163°
2026-05-05 12:30 53.06235 -2.61565 37039 ft 436 kts 163°
2026-05-05 12:30 53.00468 -2.58434 37018 ft 436 kts 163°
2026-05-05 12:31 52.94699 -2.55310 37019 ft 436 kts 163°
2026-05-05 12:31 52.88922 -2.52184 37000 ft 439 kts 162°
2026-05-05 12:32 52.83107 -2.49041 37015 ft 440 kts 161°
2026-05-05 12:32 52.77717 -2.44312 37001 ft 441 kts 147°
2026-05-05 12:33 52.72623 -2.38655 37016 ft 441 kts 147°
2026-05-05 12:33 52.70072 -2.35838 36701 ft 444 kts 147°
2026-05-05 12:33 52.67489 -2.32999 35983 ft 446 kts 146°
2026-05-05 12:34 52.64920 -2.30183 35269 ft 439 kts 146°
2026-05-05 12:34 52.62412 -2.27433 34599 ft 429 kts 146°
2026-05-05 12:34 52.59952 -2.24741 33936 ft 419 kts 145°
2026-05-05 12:34 52.57552 -2.22114 33215 ft 410 kts 146°
2026-05-05 12:35 52.55204 -2.19548 32514 ft 401 kts 146°
2026-05-05 12:35 52.52896 -2.17031 31854 ft 396 kts 147°
2026-05-05 12:35 52.50609 -2.14540 31209 ft 392 kts 147°
2026-05-05 12:35 52.48353 -2.12080 30586 ft 387 kts 148°
2026-05-05 12:36 52.46123 -2.09653 29959 ft 384 kts 148°
2026-05-05 12:36 52.43896 -2.07239 29267 ft 384 kts 148°
2026-05-05 12:36 52.41664 -2.04819 28577 ft 385 kts 148°
2026-05-05 12:36 52.39425 -2.02393 27900 ft 386 kts 148°
2026-05-05 12:37 52.37181 -1.99963 27236 ft 387 kts 148°
2026-05-05 12:37 52.34933 -1.97536 26597 ft 387 kts 148°
2026-05-05 12:37 52.32678 -1.95110 25967 ft 388 kts 148°
2026-05-05 12:37 52.30423 -1.92689 25347 ft 388 kts 148°
2026-05-05 12:38 52.28168 -1.90264 24739 ft 388 kts 148°
2026-05-05 12:38 52.25914 -1.87838 24144 ft 388 kts 148°
2026-05-05 12:38 52.23663 -1.85421 23563 ft 388 kts 148°
2026-05-05 12:38 52.21412 -1.83009 22881 ft 388 kts 148°
2026-05-05 12:39 52.19155 -1.80597 22198 ft 388 kts 148°
2026-05-05 12:39 52.16903 -1.78192 21519 ft 388 kts 148°
2026-05-05 12:39 52.14674 -1.75811 20910 ft 387 kts 148°
2026-05-05 12:39 52.12395 -1.73375 20256 ft 387 kts 148°
2026-05-05 12:40 52.10176 -1.71002 19734 ft 385 kts 148°
2026-05-05 12:40 52.07951 -1.68628 19307 ft 380 kts 148°
2026-05-05 12:40 52.05764 -1.66304 19071 ft 370 kts 148°
2026-05-05 12:40 52.03630 -1.64039 18836 ft 362 kts 148°
2026-05-05 12:41 52.01550 -1.61828 18589 ft 354 kts 148°
2026-05-05 12:41 51.99487 -1.59640 18344 ft 346 kts 148°
2026-05-05 12:41 51.97515 -1.57557 18038 ft 340 kts 148°
2026-05-05 12:41 51.95550 -1.55486 17752 ft 335 kts 148°
2026-05-05 12:42 51.93614 -1.53443 17458 ft 329 kts 148°
2026-05-05 12:42 51.91710 -1.51435 17150 ft 326 kts 148°
2026-05-05 12:42 51.89814 -1.49436 16861 ft 324 kts 148°
2026-05-05 12:42 51.87926 -1.47450 16588 ft 323 kts 148°
2026-05-05 12:43 51.86046 -1.45477 16307 ft 322 kts 148°
2026-05-05 12:43 51.84168 -1.43505 16024 ft 321 kts 148°
2026-05-05 12:43 51.82309 -1.41550 15747 ft 319 kts 147°
2026-05-05 12:43 51.80448 -1.39598 15468 ft 318 kts 147°
2026-05-05 12:44 51.78594 -1.37658 15213 ft 317 kts 147°
2026-05-05 12:44 51.76736 -1.35719 14819 ft 319 kts 147°
2026-05-05 12:44 51.74879 -1.33780 14533 ft 316 kts 147°
2026-05-05 12:44 51.73047 -1.31865 14291 ft 313 kts 147°
2026-05-05 12:45 51.71224 -1.29963 14048 ft 312 kts 147°
2026-05-05 12:45 51.69407 -1.28066 13815 ft 311 kts 147°
2026-05-05 12:45 51.67595 -1.26177 13551 ft 309 kts 147°
2026-05-05 12:45 51.65792 -1.24298 13274 ft 308 kts 146°
2026-05-05 12:46 51.63996 -1.22434 13041 ft 307 kts 146°
2026-05-05 12:46 51.62200 -1.20569 12967 ft 307 kts 146°
2026-05-05 12:46 51.60404 -1.18707 12973 ft 307 kts 146°
2026-05-05 12:46 51.58609 -1.16849 12978 ft 307 kts 146°
2026-05-05 12:47 51.56810 -1.14988 12977 ft 307 kts 146°
2026-05-05 12:47 51.55014 -1.13128 12976 ft 307 kts 146°
2026-05-05 12:47 51.53218 -1.11272 12970 ft 307 kts 146°
2026-05-05 12:47 51.51422 -1.09416 12975 ft 307 kts 147°
2026-05-05 12:48 51.49628 -1.07567 12979 ft 307 kts 146°
2026-05-05 12:48 51.47827 -1.05714 12976 ft 307 kts 146°
2026-05-05 12:48 51.46033 -1.03871 12927 ft 306 kts 146°
2026-05-05 12:48 51.44215 -1.02002 12232 ft 315 kts 146°
2026-05-05 12:49 51.42344 -1.00076 11620 ft 322 kts 146°
2026-05-05 12:49 51.40473 -0.98154 11360 ft 316 kts 147°
2026-05-05 12:49 51.38645 -0.96281 11172 ft 308 kts 147°
2026-05-05 12:49 51.36863 -0.94454 11004 ft 300 kts 147°
2026-05-05 12:50 51.35116 -0.92665 10833 ft 298 kts 147°
2026-05-05 12:50 51.33366 -0.90878 10664 ft 298 kts 147°
2026-05-05 12:50 51.31623 -0.89098 10488 ft 297 kts 147°
2026-05-05 12:50 51.29885 -0.87322 10322 ft 296 kts 147°
2026-05-05 12:51 51.28160 -0.85561 10146 ft 295 kts 147°
2026-05-05 12:51 51.26427 -0.83797 10014 ft 295 kts 147°
2026-05-05 12:51 51.24707 -0.82047 9967 ft 292 kts 147°
2026-05-05 12:51 51.22990 -0.80304 9970 ft 292 kts 147°
2026-05-05 12:52 51.21273 -0.78565 9971 ft 293 kts 147°
2026-05-05 12:52 51.19556 -0.76827 9974 ft 292 kts 147°
2026-05-05 12:52 51.17838 -0.75089 9971 ft 292 kts 147°
2026-05-05 12:52 51.16127 -0.73356 9976 ft 292 kts 147°
2026-05-05 12:53 51.14418 -0.71623 9972 ft 291 kts 147°
2026-05-05 12:53 51.12856 -0.69600 9881 ft 289 kts 128°
2026-05-05 12:53 51.11729 -0.66966 9741 ft 289 kts 122°
2026-05-05 12:53 51.11002 -0.65142 9656 ft 288 kts 122°
2026-05-05 12:54 51.08798 -0.59571 9375 ft 286 kts 122°
2026-05-05 12:54 51.07738 -0.56902 9225 ft 285 kts 121°
2026-05-05 12:54 51.06682 -0.54247 8898 ft 283 kts 122°
2026-05-05 12:55 51.05632 -0.51610 8578 ft 281 kts 122°
2026-05-05 12:55 51.04586 -0.48992 8254 ft 280 kts 121°
2026-05-05 12:55 51.03542 -0.46388 7903 ft 279 kts 122°
2026-05-05 12:55 51.02504 -0.43805 7531 ft 277 kts 122°
2026-05-05 12:56 51.01474 -0.41234 7166 ft 275 kts 122°
2026-05-05 12:56 51.00446 -0.38668 6810 ft 273 kts 122°
2026-05-05 12:56 50.99428 -0.36136 6452 ft 272 kts 122°
2026-05-05 12:56 50.98412 -0.33620 6081 ft 270 kts 121°
2026-05-05 12:57 50.97403 -0.31124 5713 ft 268 kts 121°
2026-05-05 12:57 50.96403 -0.28643 5350 ft 265 kts 120°
2026-05-05 12:57 50.95417 -0.26190 4996 ft 263 kts 120°
2026-05-05 12:57 50.94674 -0.23591 4650 ft 257 kts 100°
2026-05-05 12:58 50.94640 -0.20855 4530 ft 242 kts 77°
2026-05-05 12:58 50.95232 -0.18436 4262 ft 235 kts 56°
2026-05-05 12:58 50.96381 -0.16558 3644 ft 244 kts 32°
2026-05-05 12:58 50.97949 -0.15589 3373 ft 239 kts 10°
2026-05-05 12:59 50.99570 -0.15618 3255 ft 230 kts 349°
2026-05-05 12:59 51.01025 -0.16570 3111 ft 224 kts 329°
2026-05-05 12:59 51.02139 -0.18282 3007 ft 228 kts 306°
2026-05-05 13:00 51.02855 -0.23142 3006 ft 236 kts 262°
2026-05-05 13:00 51.02446 -0.25683 3003 ft 236 kts 257°
2026-05-05 13:01 51.01192 -0.33298 2999 ft 237 kts 264°
2026-05-05 13:01 51.01179 -0.35874 3002 ft 232 kts 282°
2026-05-05 13:01 51.01556 -0.38343 3005 ft 230 kts 287°
2026-05-05 13:01 51.01954 -0.40815 3004 ft 232 kts 287°
2026-05-05 13:02 51.02347 -0.43297 3007 ft 230 kts 287°
2026-05-05 13:02 51.02796 -0.45722 3004 ft 227 kts 300°
2026-05-05 13:02 51.03798 -0.47583 3008 ft 221 kts 329°
2026-05-05 13:02 51.05212 -0.48412 3015 ft 218 kts 356°
2026-05-05 13:03 51.06698 -0.48083 3010 ft 218 kts 21°
2026-05-05 13:03 51.08116 -0.47248 3007 ft 215 kts 20°
2026-05-05 13:03 51.09476 -0.46434 3007 ft 208 kts 25°
2026-05-05 13:03 51.10614 -0.45163 2997 ft 192 kts 46°
2026-05-05 13:04 51.11340 -0.43456 2990 ft 187 kts 65°
2026-05-05 13:04 51.11683 -0.41489 2827 ft 183 kts 75°
2026-05-05 13:04 51.11955 -0.39552 2611 ft 177 kts 75°
2026-05-05 13:04 51.12219 -0.37675 2382 ft 171 kts 74°
2026-05-05 13:05 51.12474 -0.35855 2169 ft 166 kts 74°
2026-05-05 13:05 51.12711 -0.34151 1958 ft 150 kts 74°
2026-05-05 13:05 51.12930 -0.32586 1753 ft 143 kts 73°
2026-05-05 13:05 51.13146 -0.31048 1549 ft 142 kts 74°
2026-05-05 13:06 51.13362 -0.29497 1359 ft 142 kts 72°
2026-05-05 13:06 51.13575 -0.27962 1160 ft 142 kts 74°
2026-05-05 13:06 51.13797 -0.26426 993 ft 143 kts 75°
2026-05-05 13:06 51.14007 -0.24866 809 ft 144 kts 77°
2026-05-05 13:07 51.14220 -0.23315 593 ft 144 kts 77°
2026-05-05 13:07 51.14441 -0.21780 404 ft 143 kts 79°
2026-05-05 13:07 51.14649 -0.20245 243 ft 141 kts 77°
2026-05-05 13:07 51.14851 -0.18770 206 ft 122 kts 75°
2026-05-05 13:08 51.14998 -0.17719 211 ft 72 kts 78°
2026-05-05 13:08 51.15080 -0.17300 211 ft 25 kts 56°
2026-05-05 13:08 51.15140 -0.17216 210 ft 0 kts
2026-05-05 13:08 51.15143 -0.17216 209 ft 1 kts
2026-05-05 13:09 51.15159 -0.17225 215 ft 3 kts 334°
2026-05-05 13:09 51.15192 -0.17259 213 ft 9 kts 325°
2026-05-05 13:09 51.15250 -0.17242 216 ft 10 kts 38°
2026-05-05 13:09 51.15281 -0.17226 207 ft 3 kts 358°
2026-05-05 13:10 51.15310 -0.17234 205 ft 10 kts 351°
2026-05-05 13:10 51.15382 -0.17215 209 ft 10 kts 59°
2026-05-05 13:10 51.15404 -0.17134 212 ft 7 kts 69°
2026-05-05 13:10 51.15433 -0.17070 205 ft 7 kts
2026-05-05 13:11 51.15467 -0.17089 212 ft 3 kts 347°
2026-05-05 13:11 51.15474 -0.17091 209 ft 0 kts 345°